STARLINK-32229 (60436 NORAD) Tracking and Keplerian Element Data

This shows tracking and keplerian element data for the satellite.

Feedback or suggestion? Click here.




ElementValue
Catalog60436
NameSTARLINK-32229
Epoch Orbit1077
Epoch Day286.72837612
Epoch Year2024
RAAN79.6952
Inclination53.1612
Eccentricity5.98E-05
Argument of Perigee102.5584
Mean Anonmoly257.5484
Mean Motion15.30198361
Decay Rate-2.25E-06
L11 60436U 24144M 24286.72837612 -.00000225 00000+0 45189-5 0 9993
L22 60436 53.1612 79.6952 0000598 102.5584 257.5484 15.30198361 10771



Live tracking and technical data element details for STARLINK-32229 (NORAD 60436). STARLINK-32229 can be tracked NOW for your location showing map with azimuth and elevation plus other details from your city location.







IsCatalogInMostPopularTable: catalog: 60436, numindb: 8
Update: records affected: 1



GetName: 60436 STARLINK-32229

Hit Count: updated at: Tue, 03 Dec 2024 02:22:18 GMT